DELTA 1 DEB, 12535

Orbit data source: Space-Track

DELTA 1 DEB, 12535 is space debris in LEO originally from a launch on Thu, 29 Jul 1976 UTC launched from the Air Force Western Test Range (AFWTR). Debris objects in space refer to the collection of defunct objects orbiting the Earth. Examples of debris include non-operational satellites, rocket bodies, and fragments generated from explosions, collisions, or faulty payload assembly.

Loading next visibility...
Identifier
12535, 1976-077DQ
Orbit
LEO
Country
Flag of USUS
Related business
Manufacturer
Unknown
Mission
Spacecraft
Bus & Motor
Unknown
Mass
Unknown
Launch date (UTC)
1976-07-29 (50 years ago)
Launch vehicle
Unknown
Launch site
Air Force Western Test Range (AFWTR)
Object type
Payload
Rocket body
Debris
Shape & HBR
Unknown shape, 0.1 m
Radar Cross Section
Medium (>0.1 m² and <1 m²)

Expand to show TLE details & history
Last TLE update: 7 hours ago

TLE from 7 hours ago
0 DELTA 1 DEB
1 12535U 76077DQ  26171.32545084  .00000053  00000-0  13591-2 0  9990
2 12535 102.3323 114.3736 0400413 181.1136 334.4591 11.66350100 63012
Epoch: 2026-06-20T07:48Z
TLE epoch observation values (Epoch: 2026-06-20T07:48:38.952Z)
Latitude
25.87456°
Longitude
-85.2733°
Altitude
1,543.673 km
Speed
7.223 km/s
True Right ascension
20h 01m 43s
True Declination
25° 45' 11"
Sunlit
Object was in daylight at epoch
Visualization orbit readout
Latitude
Unknown
Longitude
Unknown
Altitude
Unknown
Speed
Unknown
Apparent Right ascension
Unknown
Apparent Declination
Unknown
Sunlit
N/A
Visualization observer readout
Local Sidereal Time
01:24:32
Azimuth
Unknown
Elevation
Unknown
Doppler factor
Unknown
Orbital elements
Apogee altitude
2,161.592 km
Perigee altitude
1,504.038 km
Semi-major axis
8,210.952 km
Eccentricity
0.04004
Inclination
102.3323°
RAAN
114.3736°
Arg. of periapsis
181.1136°
True anomaly
332.38786°
Mean anomaly
334.4591°
Eccentric anomaly
333.43304°
Mean motion
2.91711 °/min
Orbital period
123.41 mins
BSTAR
0.0013591
Loading maneuver chart data...
Computing Atmospheric mass density...
Loading historical data...
Loading historical data...
Loading historical data...
Loading historical data...
Loading historical data...
Loading historical data...
Loading historical data...

Documentation

Showing up to 5 results
|